TimeEDT,TemperatureF,Dew PointF,Humidity,Sea Level PressureIn,VisibilityMPH,Wind Direction,Wind SpeedMPH,Gust SpeedMPH,PrecipitationIn,Events,Conditions,WindDirDegrees,DateUTC
12:53 AM,81.0,73.0,77,29.91,10.0,SSE,5.8,-,N/A,,Partly Cloudy,160,2013-10-07 04:53:00
1:53 AM,82.0,73.0,74,29.91,10.0,South,6.9,-,N/A,,Partly Cloudy,180,2013-10-07 05:53:00
2:53 AM,82.0,73.9,76,29.90,10.0,SSW,5.8,-,N/A,,Mostly Cloudy,200,2013-10-07 06:53:00
3:33 AM,82.4,73.4,74,29.89,10.0,South,5.8,-,N/A,,Mostly Cloudy,190,2013-10-07 07:33:00
3:53 AM,82.0,73.0,74,29.89,10.0,SSW,6.9,-,N/A,,Clear,200,2013-10-07 07:53:00
4:53 AM,81.0,73.9,79,29.87,10.0,SW,5.8,-,N/A,,Clear,220,2013-10-07 08:53:00
5:53 AM,81.0,73.9,79,29.88,10.0,SSW,8.1,-,N/A,,Clear,210,2013-10-07 09:53:00
6:53 AM,82.0,73.9,76,29.89,10.0,SSW,8.1,-,N/A,,Clear,210,2013-10-07 10:53:00
7:53 AM,82.0,73.9,76,29.91,10.0,SW,8.1,-,N/A,,Clear,220,2013-10-07 11:53:00
8:53 AM,82.0,75.0,79,29.92,10.0,SSW,10.4,-,N/A,,Partly Cloudy,210,2013-10-07 12:53:00
9:53 AM,82.9,75.0,77,29.93,10.0,SW,10.4,-,N/A,,Partly Cloudy,230,2013-10-07 13:53:00
10:53 AM,82.9,75.9,79,29.94,10.0,SW,10.4,-,N/A,,Partly Cloudy,220,2013-10-07 14:53:00
11:53 AM,84.9,75.0,72,29.92,10.0,SW,10.4,-,N/A,,Clear,220,2013-10-07 15:53:00
12:53 PM,84.9,73.9,69,29.91,10.0,SW,11.5,-,N/A,,Clear,230,2013-10-07 16:53:00
1:53 PM,86.0,73.9,67,29.89,10.0,WSW,13.8,-,N/A,,Clear,240,2013-10-07 17:53:00
2:53 PM,86.0,75.9,72,29.88,10.0,WSW,13.8,-,N/A,,Clear,240,2013-10-07 18:53:00
3:53 PM,84.9,73.9,69,29.86,10.0,WSW,15.0,-,N/A,,Clear,250,2013-10-07 19:53:00
4:53 PM,86.0,75.0,70,29.86,10.0,WSW,15.0,-,N/A,,Clear,250,2013-10-07 20:53:00
5:53 PM,84.9,75.0,72,29.86,10.0,WSW,11.5,-,N/A,,Partly Cloudy,250,2013-10-07 21:53:00
6:53 PM,82.9,75.0,77,29.86,10.0,West,8.1,-,N/A,,Clear,280,2013-10-07 22:53:00
7:53 PM,82.9,73.9,74,29.88,10.0,West,8.1,-,N/A,,Clear,270,2013-10-07 23:53:00
8:53 PM,82.9,75.0,77,29.90,10.0,West,10.4,-,N/A,,Partly Cloudy,280,2013-10-08 00:53:00
9:53 PM,82.9,75.9,79,29.91,10.0,WNW,6.9,-,N/A,,Partly Cloudy,290,2013-10-08 01:53:00
10:53 PM,82.9,75.0,77,29.92,10.0,West,3.5,-,N/A,,Clear,280,2013-10-08 02:53:00
11:53 PM,82.0,75.0,79,29.92,10.0,West,5.8,-,N/A,,Clear,280,2013-10-08 03:53:00